DMSP 5D-2 F13 DEB, 42285

Orbit data source: Space-Track

DMSP 5D-2 F13 DEB, 42285 is space debris in SSO originally from a launch on Fri, 24 Mar 1995 UTC launched from the Air Force Western Test Range (AFWTR). Debris objects in space refer to the collection of defunct objects orbiting the Earth. Examples of debris include non-operational satellites, rocket bodies, and fragments generated from explosions, collisions, or faulty payload assembly.

Loading next visibility...
Identifier
42285, 1995-015HB
Orbit
SSO
Country
Flag of USUS
Related business
Manufacturer
Unknown
Mission
Spacecraft
Bus & Motor
Unknown
Mass
Unknown
Launch date (UTC)
1995-03-24 (31 years ago)
Launch vehicle
Unknown
Launch site
Air Force Western Test Range (AFWTR)
Object type
Payload
Rocket body
Debris
Shape & HBR
Unknown shape, 0.1 m
Radar Cross Section
Medium (>0.1 m² and <1 m²)

Expand to show TLE details & history
Last TLE update: 2 days ago

TLE from 2 days ago
0 DMSP 5D-2 F13 DEB
1 42285U 95015HB  26171.36523157  .00002589  00000-0  10707-2 0  9991
2 42285  98.8964 203.4571 0031220  24.1274 336.1361 14.27310439568317
Epoch: 2026-06-20T08:45Z
TLE epoch observation values (Epoch: 2026-06-20T08:45:56.007Z)
Latitude
0.00002°
Longitude
163.39283°
Altitude
783.165 km
Speed
7.473 km/s
True Right ascension
13h 33m 49s
True Declination
0° 00' 00"
Sunlit
Object was in daylight at epoch
Visualization orbit readout
Latitude
Unknown
Longitude
Unknown
Altitude
Unknown
Speed
Unknown
Apparent Right ascension
Unknown
Apparent Declination
Unknown
Sunlit
N/A
Visualization observer readout
Local Sidereal Time
14:59:59
Azimuth
Unknown
Elevation
Unknown
Doppler factor
Unknown
Orbital elements
Apogee altitude
820.296 km
Perigee altitude
775.489 km
Semi-major axis
7,176.03 km
Eccentricity
0.00312
Inclination
98.8964°
RAAN
203.4571°
Arg. of periapsis
24.1274°
True anomaly
335.99085°
Mean anomaly
336.1361°
Eccentric anomaly
336.06353°
Mean motion
3.5704 °/min
Orbital period
100.83 mins
BSTAR
0.0010707
Loading maneuver chart data...
Computing Atmospheric mass density...

Documentation

Showing up to 5 results
|